Cortez, CO

3:38 PM MDT on June 23, 2017 (GMT -0600)
Cortez Municipal

Weather History for KCEZ - November, 2014

Change the Weather History Date:

Thursday, November 13, 2014

  Actual Average Record
Temperature  
Mean Temperature 42 °F 38 °F  
Max Temperature 51 °F 53 °F 64 °F (2007)
Min Temperature 33 °F 23 °F 10 °F (2000)
Degree Days  
Heating Degree Days 23 27  
Month to date heating degree days 275 322  
Since 1 July heating degree days 739 1004  
Cooling Degree Days 0 0  
Month to date cooling degree days 0 0  
Year to date cooling degree days 537 426  
Moisture  
Dew Point 27 °F    
Average Humidity 60    
Maximum Humidity 85    
Minimum Humidity 35    
Precipitation  
Precipitation T in 0.05 in 0.07 in (2003)
Month to date precipitation 0.03 0.58  
Year to date precipitation 7.80 12.00  
Sea Level Pressure  
Sea Level Pressure 29.99 in    
Wind  
Wind Speed 5 mph (East)    
Max Wind Speed 14 mph    
Max Gust Speed 16 mph    
Visibility 10 miles    
Events Rain    
T = Trace of Precipitation, MM = Missing Value Source: NWS Daily Summary

Daily Weather History Graph

Daily Weather History Graph

Search for Another Location

Airport or City:

Trip Planner

Search our weather history database for the weather conditions in past years. The results will help you decide how hot, cold, wet, or windy it might be!

Date:

Astronomy

Nov. 13, 2014 Rise Set
Actual Time 6:51 AM MST 5:05 PM MST
Civil Twilight 6:23 AM MST 5:33 PM MST
Nautical Twilight 5:52 AM MST 6:04 PM MST
Astronomical Twilight 5:21 AM MST 6:35 PM MST
Moon 11:22 PM MST (11/13) 12:15 PM MST (11/13)
Length of Visible Light 11h 09m
Length of Day
10h 13m
Waning Gibbous, 58% of the Moon is Illuminated
Nov 13
Waning Gibbous
Nov 14
Last Quarter
Nov 22
New
Nov 29
First Quarter
Dec 6
Full

Hourly Weather History & Observations

Time (MST) Temp. Windchill Dew Point Humidity Pressure Visibility Wind Dir Wind Speed Gust Speed Precip Events Conditions
12:53 AM 34.0 °F 31.0 °F 23.0 °F 64% 29.97 in 10.0 mi East 3.5 mph - N/A   Clear
1:53 AM 34.0 °F 29.8 °F 24.1 °F 67% 29.99 in 10.0 mi East 4.6 mph - N/A   Clear
2:53 AM 34.0 °F 31.0 °F 24.1 °F 67% 29.99 in 10.0 mi East 3.5 mph - N/A   Clear
3:53 AM 34.0 °F 29.8 °F 25.0 °F 70% 29.99 in 10.0 mi East 4.6 mph - N/A   Scattered Clouds
4:53 AM 34.0 °F 29.8 °F 25.0 °F 70% 30.01 in 10.0 mi ESE 4.6 mph - N/A   Partly Cloudy
5:53 AM 34.0 °F 29.8 °F 25.0 °F 70% 30.03 in 10.0 mi ENE 4.6 mph - N/A   Scattered Clouds
6:53 AM 34.0 °F - 25.0 °F 70% 30.05 in 10.0 mi Calm Calm - N/A   Overcast
7:53 AM 37.0 °F 33.3 °F 26.1 °F 65% 30.07 in 10.0 mi ENE 4.6 mph - N/A   Overcast
8:53 AM 39.0 °F - 26.1 °F 60% 30.09 in 10.0 mi Calm Calm - N/A   Overcast
9:53 AM 41.0 °F 37.1 °F 23.0 °F 49% 30.10 in 10.0 mi SW 5.8 mph - N/A   Mostly Cloudy
10:53 AM 44.1 °F 40.1 °F 21.0 °F 40% 30.06 in 10.0 mi SSW 6.9 mph - N/A   Clear
11:53 AM 48.0 °F - 23.0 °F 37% 30.01 in 10.0 mi Variable 3.5 mph - N/A   Clear
12:53 PM 50.0 °F - 24.1 °F 36% 29.97 in 10.0 mi SW 12.7 mph - N/A   Clear
1:53 PM 50.0 °F - 24.1 °F 36% 29.95 in 10.0 mi SW 10.4 mph - N/A   Mostly Cloudy
2:53 PM 51.1 °F - 25.0 °F 36% 29.95 in 10.0 mi NW 5.8 mph - N/A   Overcast
3:53 PM 50.0 °F - 25.0 °F 38% 29.95 in 10.0 mi NW 6.9 mph - N/A   Mostly Cloudy
4:53 PM 46.9 °F - 24.1 °F 41% 29.96 in 10.0 mi West 3.5 mph - N/A   Scattered Clouds
5:53 PM 44.1 °F - 24.1 °F 45% 29.98 in 10.0 mi Calm Calm - N/A   Mostly Cloudy
6:53 PM 45.0 °F 41.2 °F 27.0 °F 49% 29.97 in 10.0 mi ESE 6.9 mph - 0.00 in Rain Light Rain
7:53 PM 43.0 °F 40.3 °F 34.0 °F 71% 29.97 in - ENE 4.6 mph - 0.00 in   Overcast
8:53 PM 42.1 °F 37.7 °F 36.0 °F 79% 29.96 in - NE 6.9 mph - 0.00 in   Overcast
9:53 PM 42.1 °F - 37.0 °F 82% 29.95 in - Calm Calm - 0.00 in   Overcast
10:53 PM 39.0 °F 36.8 °F 36.0 °F 89% 29.95 in - ENE 3.5 mph - N/A   Mostly Cloudy
11:53 PM 41.0 °F 39.0 °F 37.0 °F 86% 29.94 in - NE 3.5 mph - N/A   Overcast